Weather History for KPBI - January, 2015

Change the Weather History Date:

Monday, January 12, 2015

  Actual Average Record
Temperature  
Mean Temperature 78 °F 65 °F  
Max Temperature 82 °F 74 °F 86 °F (1901)
Min Temperature 73 °F 57 °F 29 °F (1982)
Degree Days  
Heating Degree Days 0 3  
Month to date heating degree days 1 36  
Since 1 July heating degree days 43 107  
Cooling Degree Days 13 3  
Month to date cooling degree days 109 43  
Year to date cooling degree days 109 43  
Growing Degree Days 28 (Base 50)    
Moisture  
Dew Point 71 °F    
Average Humidity 78    
Maximum Humidity 87    
Minimum Humidity 69    
Precipitation  
Precipitation 0.03 in 0.11 in 4.28 in (1889)
Month to date precipitation 0.64 1.31  
Year to date precipitation 0.64 1.31  
Snow  
Snow 0.00 in - - ()
Month to date snowfall 0.0  
Since 1 July snowfall 0.0  
Snow Depth 0.00 in    
Sea Level Pressure  
Sea Level Pressure 30.14 in    
Wind  
Wind Speed 13 mph (SE)    
Max Wind Speed 23 mph    
Max Gust Speed 29 mph    
Visibility 10 miles    
Events Rain    
T = Trace of Precipitation, MM = Missing Value Source: NWS Daily Summary

Daily Weather History Graph

Daily Weather History Graph

Search for Another Location

Airport or City:

Trip Planner

Search our weather history database for the weather conditions in past years. The results will help you decide how hot, cold, wet, or windy it might be!

Date:

Astronomy

Jan. 12, 2015 Rise Set
Actual Time 7:10 AM EST 5:47 PM EST
Civil Twilight 6:45 AM EST 6:12 PM EST
Nautical Twilight 6:16 AM EST 6:40 PM EST
Astronomical Twilight 5:48 AM EST 7:08 PM EST
Moon No Moon Rise 11:33 AM EST (1/12)
Length of Visible Light 11h 26m
Length of Day
10h 36m
Waning Gibbous, 57% of the Moon is Illuminated
Jan 12
Waning Gibbous
Jan 13
Last Quarter
Jan 20
New
Jan 26
First Quarter
Feb 3
Full

Hourly Weather History & Observations

Time (EST) Temp. Heat Index Dew Point Humidity Pressure Visibility Wind Dir Wind Speed Gust Speed Precip Events Conditions
12:53 AM 75.9 °F - 71.1 °F 85% 30.22 in 10.0 mi East 13.8 mph - N/A   Mostly Cloudy
1:53 AM 75.9 °F - 71.1 °F 85% 30.20 in 10.0 mi ESE 15.0 mph - N/A   Mostly Cloudy
2:53 AM 75.9 °F - 72.0 °F 87% 30.18 in 10.0 mi East 13.8 mph - N/A   Mostly Cloudy
3:53 AM 75.9 °F - 71.1 °F 85% 30.17 in 10.0 mi East 16.1 mph - 0.00 in   Mostly Cloudy
4:53 AM 75.9 °F - 71.1 °F 85% 30.16 in 10.0 mi East 13.8 mph - N/A   Overcast
5:53 AM 77.0 °F - 70.0 °F 79% 30.17 in 10.0 mi ESE 16.1 mph - N/A   Mostly Cloudy
6:35 AM 77.0 °F - 70.0 °F 79% 30.18 in 10.0 mi ESE 16.1 mph - N/A   Mostly Cloudy
6:53 AM 77.0 °F - 70.0 °F 79% 30.18 in 10.0 mi ESE 16.1 mph - N/A   Mostly Cloudy
7:53 AM 77.0 °F - 71.1 °F 82% 30.19 in 10.0 mi East 17.3 mph - N/A   Mostly Cloudy
8:48 AM 78.8 °F - 69.8 °F 74% 30.19 in 10.0 mi ESE 13.8 mph - N/A   Mostly Cloudy
8:53 AM 78.1 °F - 70.0 °F 76% 30.19 in 10.0 mi ESE 18.4 mph - N/A   Mostly Cloudy
9:53 AM 79.0 °F - 70.0 °F 74% 30.20 in 10.0 mi ESE 18.4 mph - N/A   Mostly Cloudy
10:26 AM 81.0 °F 84.4 °F 70.0 °F 69% 30.20 in 10.0 mi SE 20.7 mph 26.5 mph N/A   Mostly Cloudy
10:53 AM 81.0 °F 84.9 °F 71.1 °F 72% 30.19 in 10.0 mi ESE 17.3 mph - N/A   Mostly Cloudy
11:53 AM 80.1 °F 83.2 °F 70.0 °F 71% 30.16 in 10.0 mi ESE 19.6 mph - N/A   Mostly Cloudy
12:53 PM 80.1 °F 83.2 °F 70.0 °F 71% 30.13 in 10.0 mi ESE 16.1 mph - N/A   Mostly Cloudy
1:53 PM 79.0 °F - 69.1 °F 72% 30.11 in 10.0 mi SSE 12.7 mph - 0.00 in   Overcast
2:27 PM 79.0 °F - 69.1 °F 72% 30.09 in 10.0 mi SSE 12.7 mph - N/A   Overcast
2:53 PM 79.0 °F - 70.0 °F 74% 30.09 in 10.0 mi SE 12.7 mph - N/A   Overcast
3:53 PM 78.1 °F - 71.1 °F 79% 30.09 in 5.0 mi SSE 15.0 mph - 0.00 in Rain Light Rain
4:53 PM 77.0 °F - 72.0 °F 84% 30.08 in 10.0 mi SE 10.4 mph - 0.03 in   Overcast
5:14 PM 78.1 °F - 71.1 °F 79% 30.09 in 10.0 mi SE 8.1 mph - N/A   Overcast
5:53 PM 77.0 °F - 72.0 °F 84% 30.08 in 10.0 mi SE 10.4 mph - N/A   Mostly Cloudy
6:43 PM 77.0 °F - 72.0 °F 84% 30.09 in 10.0 mi SE 5.8 mph - N/A   Scattered Clouds
6:53 PM 77.0 °F - 72.0 °F 84% 30.09 in 10.0 mi SE 9.2 mph - N/A   Mostly Cloudy
7:53 PM 77.0 °F - 72.0 °F 84% 30.10 in 10.0 mi SE 6.9 mph - N/A   Mostly Cloudy
8:53 PM 77.0 °F - 72.0 °F 84% 30.12 in 10.0 mi SSE 4.6 mph - N/A   Mostly Cloudy
9:53 PM 75.9 °F - 72.0 °F 87% 30.11 in 10.0 mi South 4.6 mph - N/A   Mostly Cloudy
10:53 PM 75.0 °F - 72.0 °F 90% 30.09 in 10.0 mi SSW 3.5 mph - 0.00 in   Mostly Cloudy
11:53 PM 73.9 °F - 72.0 °F 93% 30.08 in 10.0 mi NNW 9.2 mph - N/A   Mostly Cloudy
11:58 PM 73.9 °F - 72.0 °F 93% 30.08 in 10.0 mi North 11.5 mph - N/A   Overcast